AEROCUBE 6A

Last updated on Thu Nov 21 2024 00:03:39 GMT+0000 (Coordinated Universal Time)

1 40045U 14033AM 24325.42499502 .00011054 00000+0 11937-2 0 9998 2 40045 97.6769 133.2450 0047363 126.6469 233.9117 14.87679294560985
UTC large
Height (km)
Speed (km/s)
/
Latitude / Longitude
Inclination (degrees)
Orbital Period (minutes)
Azimuth
Elevation
Range (km)
Doppler Factor

Next 0 passes for location: London (51.5072 / 0.1276)

Sorry there are no passes over London.